ZHONGXING-12

Last updated on Mon Sep 07 2026 00:02:58 GMT+0000 (Coordinated Universal Time)

1 39017U 12067A 26249.60915507 -.00000223 00000+0 00000+0 0 9998 2 39017 0.0140 139.7597 0002684 28.7233 124.0123 1.00272571 50321
UTC large
Height (km)
Speed (km/s)
/
Latitude / Longitude
Inclination (degrees)
Orbital Period (minutes)
Azimuth
Elevation
Range (km)
Doppler Factor

Next 0 passes for location: London (51.5072 / 0.1276)

No passes found over London.
ZHONGXING-12